Flag for U.S.A. Weather past 2 weeks in Tucson, Arizona, U.S.A.

Now
56 °F

Sunny.


Feels Like: 55 °F
Forecast: 57 / 89 °F
Wind: 7 mph from Southeast

Location: Davis-Monthan Air Force Base


UV Index: 7 (High)

Visibility: 10 mi


Pressure: 29.85 "Hg

Humidity: 24%

Dew point: 20 °F

Location of TucsonLocation

Historic Weather in Tucson

°F

Tucson temperature yesterday

Maximum temperature yesterday: 86 °F (at 2:01 PM)
Minimum temperature yesterday: 54 °F (at 3:58 AM)
Average temperature yesterday: 72 °F

Past Weeks' High & Low Weather Summary

 TemperatureHumidityPressure
High92 °F (Apr 10, 3:58 PM)46% (Apr 2, 6:58 AM)30.09 "Hg (Apr 2, 6:58 AM)
Low44 °F (Apr 3, 5:58 AM)2% (Apr 10, 3:58 PM)29.63 "Hg (Apr 12, 3:58 PM)
Average68 °F16%29.87 "Hg
* Reported Apr 2 5:58 AM — Apr 17 5:58 AM, Tucson, Weather by CustomWeather, © 2014

Note: Actual official high and low records may vary slightly from our data, if they occured in-between our weather recording intervals... More about our weather records

Advertising

Historic Weather Conditions — Data for Previous 24 hours

 ConditionsComfort  
Time TempWeatherWind HumidityBarometerVisibility
5:58 AM
Apr 17
56 °FSunny.7 mph24%29.85 "Hg10 mi
4:58 AM56 °FClear.7 mph24%29.83 "Hg10 mi
3:58 AM59 °FClear.9 mph21%29.82 "Hg10 mi
2:58 AM62 °FClear.8 mph20%29.80 "Hg10 mi
1:58 AM65 °FClear.9 mph20%29.80 "Hg10 mi
12:58 AM66 °FClear.6 mph21%29.80 "Hg10 mi
11:58 PM
Apr 16
69 °FClear.10 mph20%29.78 "Hg10 mi
10:58 PM68 °FClear.8 mph10%29.77 "Hg10 mi
9:58 PM68 °FClear.8 mph11%29.74 "Hg10 mi
8:58 PM73 °FClear.8 mph9%29.70 "Hg10 mi
7:58 PM77 °FClear.7 mph7%29.68 "Hg10 mi
6:58 PM81 °FClear.9 mph7%29.67 "Hg10 mi
5:58 PM84 °FSunny.14 mph6%29.65 "Hg10 mi
4:58 PM86 °FSunny.15 mph5%29.65 "Hg10 mi
3:58 PM86 °FSunny.18 mph6%29.64 "Hg10 mi
2:58 PM86 °FSunny.17 mph5%29.66 "Hg10 mi
2:01 PM86 °FSunny.14 mph5%29.79 "Hg10 mi
1:58 PM85 °FSunny.7 mph5%29.68 "Hg10 mi
12:58 PM82 °FSunny.6 mph6%29.70 "Hg10 mi
11:58 AM81 °FSunny.5 mph6%29.72 "Hg10 mi
10:58 AM78 °FSunny.2 mph6%29.75 "Hg10 mi
9:58 AM76 °FSunny.3 mph7%29.75 "Hg10 mi
8:58 AM73 °FSunny.5 mph8%29.74 "Hg10 mi
7:58 AM64 °FSunny.8 mph14%29.75 "Hg10 mi
6:58 AM57 °FSunny.7 mph17%29.75 "Hg10 mi
Weather by CustomWeather, © 2014

See weather overview